Simultaneous Nadir Overpasses (SNOs) Predictions

Prediction of SNOs between GOES-15 and TERRA Satellite Orbit:

Table of predicted SNOs for the next 14.0 days since TLE Epoch: 10/1/2022
Index Date Time (GOES-15) GOES-15 Lat,Lon TERRA Lat,Lon Distance(km) Time Diff (sec)
1 10/01/2022 06:42:22 0.30,-128.13 0.49,-127.26 98.92 80
2 10/01/2022 19:03:36 -0.31,-128.14 0.61,-132.42 486.55 80
3 10/03/2022 06:30:06 0.29,-128.17 1.13,-124.30 440.05 80
4 10/03/2022 18:51:19 -0.30,-128.18 -0.04,-129.46 145.32 80
5 10/05/2022 18:41:41 -0.30,-128.21 -0.64,-126.49 195.62 80
6 10/06/2022 07:03:04 0.31,-128.23 -0.44,-131.68 393.11 80
7 10/08/2022 06:50:46 0.30,-128.26 0.18,-128.72 52.29 80
8 10/10/2022 06:35:48 0.30,-128.30 0.81,-125.75 288.60 80
9 10/10/2022 18:57:02 -0.31,-128.29 0.28,-130.91 298.24 80
10 10/12/2022 18:47:24 -0.30,-128.32 -0.37,-127.95 42.38 80
11 10/14/2022 18:35:06 -0.30,-128.35 -1.03,-124.98 382.51 80
